Flag for Norway Weather past 2 weeks in Raufoss, Norway

Now
48 °F

Cool.


Feels Like: 48 °F
Forecast: 42 / 56 °F
Wind: 2 mph from Southeast

Location: Lillehammer-Saetherengen

Current Time: Oct 2, 2014 at 12:27:38 AM

Latest Report: Oct 1, 2014 at 11:00 PM


Visibility: N/A

Pressure: 30.17 "Hg

Humidity: 86%

Dew point: 44 °F

Location of RaufossLocation

Historic Weather in Raufoss — Graph

°F

Raufoss temperature yesterday

Maximum temperature yesterday: 51 °F (at 3:00 PM)
Minimum temperature yesterday: 41 °F (at 4:00 AM)
Average temperature yesterday: 46 °F

Past Weeks' High & Low Weather Summary

 TemperatureHumidityPressure
High65 °F (Sep 17, 4:00 PM)96% (Sep 17, 7:00 AM)30.35 "Hg (Sep 17, 7:00 AM)
Low33 °F (Sep 23, 4:00 AM)34% (Sep 26, 5:00 PM)29.35 "Hg (Sep 26, 12:00 PM)
Average48 °F76%29.96 "Hg
* Reported Sep 16 11:00 PM — Oct 1 11:00 PM, Raufoss, Weather by CustomWeather, © 2014

Note: Actual official high and low records may vary slightly from our data, if they occured in-between our weather recording intervals... More about our weather records

Advertising

Raufoss weather history for previous 24 hours

 ConditionsComfort  
Time TempWeatherWind HumidityBarometerVisibility
11:00 PM
Oct 1
48 °FCool.2 mph86%30.17 "HgN/A
10:00 PM49 °FCool.2 mph80%30.18 "HgN/A
9:00 PM49 °FCool.2 mph77%30.19 "HgN/A
8:00 PM49 °FCool.1 mph73%30.20 "HgN/A
7:00 PM49 °FCool.2 mph73%30.22 "HgN/A
6:00 PM47 °FCool.1 mph75%30.22 "HgN/A
5:00 PM48 °FCool.2 mph76%30.24 "HgN/A
4:00 PM49 °FCool.2 mph71%30.25 "HgN/A
3:00 PM51 °FCool.3 mph70%30.25 "HgN/A
2:00 PM50 °FCool.2 mph74%30.28 "HgN/A
1:00 PM49 °FCool.2 mph79%30.29 "HgN/A
12:00 PM46 °FCool.2 mph89%30.30 "HgN/A
11:00 AM46 °FCool.1 mph88%30.31 "HgN/A
10:00 AM46 °FCool.1 mph89%30.32 "HgN/A
9:00 AM44 °FQuite cool.1 mph91%30.32 "HgN/A
8:00 AM43 °FQuite cool.1 mph92%30.32 "HgN/A
7:00 AM43 °FQuite cool.1 mph92%30.32 "HgN/A
6:00 AM42 °FQuite cool.1 mph93%30.33 "HgN/A
5:00 AM41 °FQuite cool.No wind92%30.34 "HgN/A
4:00 AM41 °FQuite cool.1 mph91%30.34 "HgN/A
3:00 AM45 °FQuite cool.1 mph87%30.34 "HgN/A
2:00 AM46 °FCool.1 mph86%30.34 "HgN/A
1:00 AM45 °FCool.1 mph86%30.34 "HgN/A
12:00 AM45 °FCool.No wind86%30.34 "HgN/A
Weather by CustomWeather, © 2014

See weather overviewHow to use our weather pages